TimeEDT,TemperatureF,Dew PointF,Humidity,Sea Level PressureIn,VisibilityMPH,Wind Direction,Wind SpeedMPH,Gust SpeedMPH,PrecipitationIn,Events,Conditions,WindDirDegrees,DateUTC
12:53 AM,44.1,37.9,79,29.88,10.0,NW,5.8,-,N/A,,Overcast,320,2011-10-01 04:53:00
1:53 AM,44.1,37.9,79,29.88,10.0,NW,8.1,-,N/A,,Overcast,320,2011-10-01 05:53:00
2:53 AM,44.1,37.9,79,29.88,10.0,NNW,8.1,-,N/A,,Overcast,330,2011-10-01 06:53:00
3:53 AM,43.0,37.0,80,29.88,10.0,NW,9.2,17.3,N/A,,Overcast,320,2011-10-01 07:53:00
4:44 AM,42.8,37.4,81,29.88,10.0,NW,5.8,-,N/A,,Overcast,320,2011-10-01 08:44:00
5:53 AM,42.1,37.0,82,29.89,10.0,Variable,3.5,-,N/A,,Overcast,0,2011-10-01 09:53:00
6:50 AM,42.8,37.4,81,29.89,10.0,WNW,3.5,-,N/A,,Overcast,290,2011-10-01 10:50:00
6:53 AM,43.0,37.9,82,29.91,10.0,WNW,3.5,-,N/A,,Overcast,300,2011-10-01 10:53:00
7:53 AM,43.0,39.9,89,29.91,2.5,WNW,3.5,-,0.00,Rain,Light Rain,300,2011-10-01 11:53:00
8:07 AM,44.6,39.2,81,29.90,8.0,WNW,4.6,-,0.00,,Overcast,300,2011-10-01 12:07:00
8:53 AM,45.0,42.1,90,29.92,4.0,Variable,4.6,-,0.02,Rain,Light Rain,0,2011-10-01 12:53:00
9:36 AM,44.6,42.8,93,29.90,2.0,Calm,Calm,-,0.01,Rain,Light Rain,0,2011-10-01 13:36:00
9:44 AM,46.4,42.8,87,29.90,2.0,West,3.5,-,0.02,Rain,Light Rain,280,2011-10-01 13:44:00
9:53 AM,46.0,44.1,93,29.92,2.5,NW,3.5,-,0.03,Rain,Rain,320,2011-10-01 13:53:00
10:17 AM,46.4,44.6,93,29.91,4.0,North,3.5,-,0.04,Rain,Light Rain,350,2011-10-01 14:17:00
10:38 AM,48.2,44.6,87,29.91,4.0,North,4.6,-,0.08,Rain,Light Rain,350,2011-10-01 14:38:00
10:53 AM,50.0,46.0,86,29.93,7.0,North,8.1,-,0.09,Rain,Light Rain,360,2011-10-01 14:53:00
11:22 AM,50.0,46.4,87,29.93,4.0,North,8.1,-,0.02,Rain,Light Rain,10,2011-10-01 15:22:00
11:41 AM,50.0,46.4,87,29.94,3.0,NNE,10.4,17.3,0.03,Rain,Light Rain,20,2011-10-01 15:41:00
11:53 AM,50.0,46.9,89,29.96,5.0,North,9.2,-,0.04,Rain,Light Rain,10,2011-10-01 15:53:00
12:53 PM,48.9,45.0,86,29.98,7.0,North,17.3,25.3,0.04,Rain,Light Rain,10,2011-10-01 16:53:00
1:00 PM,50.0,44.6,82,29.97,7.0,North,17.3,24.2,0.00,Rain,Light Rain,10,2011-10-01 17:00:00
1:53 PM,50.0,45.0,83,29.99,10.0,North,9.2,-,0.00,,Overcast,360,2011-10-01 17:53:00
2:53 PM,50.0,46.0,86,29.99,8.0,North,8.1,16.1,0.00,Rain,Light Rain,360,2011-10-01 18:53:00
3:05 PM,51.8,44.6,76,29.98,10.0,North,12.7,18.4,0.00,,Overcast,10,2011-10-01 19:05:00
3:14 PM,50.0,44.6,82,29.98,10.0,North,11.5,23.0,0.00,,Overcast,10,2011-10-01 19:14:00
3:53 PM,48.9,43.0,80,30.01,10.0,North,9.2,19.6,0.00,,Overcast,10,2011-10-01 19:53:00
4:18 PM,48.2,44.6,87,30.00,9.0,North,12.7,-,0.00,Rain,Light Rain,360,2011-10-01 20:18:00
4:39 PM,48.2,42.8,82,30.00,10.0,North,13.8,20.7,0.00,,Overcast,360,2011-10-01 20:39:00
4:53 PM,48.0,43.0,83,30.02,9.0,North,10.4,23.0,0.00,Rain,Light Rain,360,2011-10-01 20:53:00
5:10 PM,48.2,42.8,82,30.01,10.0,North,9.2,17.3,0.00,,Overcast,10,2011-10-01 21:10:00
5:17 PM,48.2,42.8,82,30.02,10.0,North,9.2,18.4,0.00,,Overcast,10,2011-10-01 21:17:00
5:53 PM,48.0,43.0,83,30.04,7.0,North,13.8,21.9,0.00,Rain,Light Rain,360,2011-10-01 21:53:00
6:21 PM,48.2,42.8,82,30.03,10.0,North,11.5,-,0.00,,Overcast,360,2011-10-01 22:21:00
6:30 PM,48.2,42.8,82,30.04,10.0,North,10.4,-,0.00,,Overcast,360,2011-10-01 22:30:00
6:37 PM,48.2,42.8,82,30.04,10.0,North,8.1,-,0.00,,Overcast,10,2011-10-01 22:37:00
6:44 PM,48.2,42.8,82,30.04,10.0,North,10.4,-,0.00,,Overcast,360,2011-10-01 22:44:00
6:53 PM,48.0,42.1,80,30.06,10.0,NNW,9.2,-,0.00,,Overcast,340,2011-10-01 22:53:00
7:53 PM,48.0,42.1,80,30.06,10.0,NNW,5.8,-,N/A,,Overcast,330,2011-10-01 23:53:00
8:25 PM,48.2,41.0,76,30.05,10.0,North,9.2,16.1,N/A,,Overcast,350,2011-10-02 00:25:00
9:53 PM,46.0,37.9,73,30.07,10.0,NNW,6.9,-,N/A,,Overcast,340,2011-10-02 01:53:00
11:53 PM,46.0,37.9,73,30.06,10.0,NNW,9.2,-,N/A,,Overcast,340,2011-10-02 03:53:00